Location: Canyon City
(32.5951°N, 116.5278°W)
Time: 03:05:20
(UTC+00:00)

Cosmos 1934 Rocket - Pass Details

Date: 08 September 2024
Orbit: 938 x 997 km, 83.0° (Epoch: 03 October)

Event Time Altitude Azimuth Distance (km) Brightness Sun altitude
Rises 11:58:43 0° 355° (N) 3,684 7.2 -18.7°
Reaches altitude 10° 12:01:14 10° 356° (N) 2,741 6.5 -18.2°
Maximum altitude 12:07:33 84° 85° (E) 1,001 4.1 -16.9°
Drops below altitude 10° 12:13:53 10° 173° (S) 2,752 6.3 -15.6°
Sets 12:16:24 0° 174° (S) 3,700 6.9 -15.1°
